Change the Weather History Date:

Wednesday, January 2, 2013

  Actual Average Record
Temperature  
Mean Temperature 40 °F -  
Max Temperature 48 °F 49 °F 57 °F (2003)
Min Temperature 33 °F 40 °F 32 °F (2009)
Degree Days  
Heating Degree Days 24    
Moisture  
Dew Point 29 °F    
Average Humidity 68    
Maximum Humidity 81    
Minimum Humidity 50    
Precipitation  
Precipitation 0.00 in - - ()
Sea Level Pressure  
Sea Level Pressure 30.20 in    
Wind  
Wind Speed 12 mph (East)    
Max Wind Speed 22 mph    
Max Gust Speed 32 mph    
Visibility 10 miles    
Events      
Averages and records for this station are not official NWS values.
T = Trace of Precipitation, MM = Missing Value Source: NWS Daily Summary

Daily Weather History Graph

Daily Weather History Graph

Search for Another Location

Airport or City:

Trip Planner

Search our weather history database for the weather conditions in past years. The results will help you decide how hot, cold, wet, or windy it might be!

Date:

Astronomy

Jan. 02, 2013 Rise Set
Actual Time 7:53 AM PST 4:48 PM PST
Civil Twilight 7:19 AM PST 5:21 PM PST
Nautical Twilight 6:43 AM PST 5:58 PM PST
Astronomical Twilight 6:07 AM PST 6:33 PM PST
Moon 10:41 PM PST (1/2) 10:24 AM PST (1/2)
Length of Visible Light 10h 01m
Length of Day
8h 55m
Waning Gibbous, 74% of the Moon is Illuminated
Jan 2
Waning Gibbous
Jan 4
Last Quarter
Jan 11
New
Jan 18
First Quarter
Jan 26
Full

Hourly Weather History & Observations

Time (PST) Temp. Windchill Dew Point Humidity Pressure Visibility Wind Dir Wind Speed Gust Speed Precip Events Conditions
12:15 AM 37.4 °F 34.9 °F 30.2 °F 75% 30.25 in 10.0 mi ENE 3.5 mph - N/A   Clear
12:35 AM 37.4 °F 29.3 °F 30.2 °F 75% 30.24 in 10.0 mi ENE 12.7 mph 17.3 mph N/A   Clear
12:55 AM 37.4 °F 32.1 °F 30.2 °F 75% 30.24 in 10.0 mi ENE 6.9 mph - N/A   Clear
1:35 AM 35.6 °F 29.9 °F 30.2 °F 81% 30.24 in 10.0 mi ENE 6.9 mph - N/A   Clear
1:55 AM 35.6 °F 28.0 °F 30.2 °F 81% 30.24 in 10.0 mi East 10.4 mph - N/A   Clear
2:15 AM 35.6 °F 28.0 °F 28.4 °F 75% 30.23 in 10.0 mi East 10.4 mph - N/A   Clear
2:35 AM 35.6 °F 26.2 °F 28.4 °F 75% 30.23 in 10.0 mi East 15.0 mph - N/A   Clear
2:55 AM 35.6 °F 28.0 °F 28.4 °F 75% 30.24 in 10.0 mi East 10.4 mph 19.6 mph N/A   Clear
3:15 AM 35.6 °F 26.2 °F 28.4 °F 75% 30.22 in 10.0 mi East 15.0 mph 20.7 mph N/A   Clear
3:35 AM 35.6 °F 26.2 °F 28.4 °F 75% 30.22 in 10.0 mi East 15.0 mph - N/A   Clear
3:55 AM 35.6 °F 26.2 °F 28.4 °F 75% 30.22 in 10.0 mi East 15.0 mph 20.7 mph N/A   Clear
4:15 AM 35.6 °F 26.2 °F 28.4 °F 75% 30.21 in 10.0 mi East 15.0 mph 20.7 mph N/A   Clear
4:35 AM 35.6 °F 25.5 °F 28.4 °F 75% 30.21 in 10.0 mi East 17.3 mph 24.2 mph N/A   Clear
4:55 AM 35.6 °F 25.9 °F 28.4 °F 75% 30.22 in 10.0 mi East 16.1 mph 20.7 mph N/A   Clear
5:15 AM 35.6 °F 26.2 °F 28.4 °F 75% 30.21 in 10.0 mi East 15.0 mph 21.9 mph N/A   Clear
5:35 AM 35.6 °F 25.9 °F 26.6 °F 70% 30.21 in 10.0 mi East 16.1 mph 24.2 mph N/A   Clear
5:55 AM 33.8 °F 23.2 °F 26.6 °F 75% 30.21 in 10.0 mi East 17.3 mph 24.2 mph N/A   Clear
6:15 AM 33.8 °F 23.2 °F 26.6 °F 75% 30.21 in 10.0 mi East 17.3 mph 26.5 mph N/A   Clear
6:35 AM 33.8 °F 23.2 °F 26.6 °F 75% 30.21 in 10.0 mi East 17.3 mph 24.2 mph N/A   Clear
6:55 AM 33.8 °F 22.8 °F 26.6 °F 75% 30.21 in 10.0 mi East 18.4 mph 23.0 mph N/A   Clear
7:15 AM 33.8 °F 23.9 °F 26.6 °F 75% 30.21 in 10.0 mi East 15.0 mph 23.0 mph N/A   Clear
7:35 AM 33.8 °F 22.8 °F 26.6 °F 75% 30.21 in 10.0 mi East 18.4 mph 21.9 mph N/A   Clear
7:55 AM 33.8 °F 23.9 °F 26.6 °F 75% 30.22 in 10.0 mi East 15.0 mph 23.0 mph N/A   Clear
8:15 AM 35.6 °F 25.9 °F 26.6 °F 70% 30.22 in 10.0 mi East 16.1 mph - N/A   Clear
8:35 AM 35.6 °F 26.2 °F 26.6 °F 70% 30.22 in 10.0 mi East 15.0 mph 21.9 mph N/A   Clear
8:55 AM 35.6 °F 26.6 °F 26.6 °F 70% 30.23 in 10.0 mi East 13.8 mph 19.6 mph N/A   Clear
9:15 AM 37.4 °F 28.5 °F 26.6 °F 65% 30.24 in 10.0 mi East 15.0 mph 20.7 mph N/A   Clear
9:35 AM 37.4 °F 27.8 °F 26.6 °F 65% 30.25 in 10.0 mi East 17.3 mph - N/A   Clear
9:55 AM 37.4 °F 28.2 °F 28.4 °F 70% 30.26 in 10.0 mi East 16.1 mph 20.7 mph N/A   Clear
10:15 AM 39.2 °F 31.2 °F 28.4 °F 65% 30.26 in 10.0 mi East 13.8 mph - N/A   Clear
10:35 AM 41.0 °F 33.1 °F 28.4 °F 61% 30.26 in 10.0 mi East 15.0 mph - N/A   Clear
10:55 AM 41.0 °F 33.1 °F 28.4 °F 61% 30.26 in 10.0 mi East 15.0 mph - N/A   Clear
11:15 AM 42.8 °F 35.4 °F 28.4 °F 57% 30.25 in 10.0 mi East 15.0 mph 19.6 mph N/A   Clear
11:35 AM 44.6 °F 38.8 °F 30.2 °F 57% 30.24 in 10.0 mi East 11.5 mph - N/A   Clear
11:55 AM 44.6 °F 38.4 °F 30.2 °F 57% 30.23 in 10.0 mi East 12.7 mph - N/A   Clear
12:15 PM 44.6 °F 39.2 °F 30.2 °F 57% 30.22 in 10.0 mi ENE 10.4 mph - N/A   Clear
12:35 PM 46.4 °F 41.1 °F 30.2 °F 53% 30.22 in 10.0 mi East 11.5 mph - N/A   Clear
12:55 PM 46.4 °F 41.9 °F 32.0 °F 57% 30.21 in 10.0 mi East 9.2 mph - N/A   Clear
1:15 PM 48.2 °F - 30.2 °F 50% 30.20 in 10.0 mi East 10.4 mph - N/A   Clear
1:35 PM 48.2 °F - 32.0 °F 54% 30.20 in 10.0 mi East 9.2 mph - N/A   Clear
1:55 PM 48.2 °F - 32.0 °F 54% 30.18 in 10.0 mi ENE 9.2 mph - N/A   Clear
2:15 PM 48.2 °F - 32.0 °F 54% 30.18 in 10.0 mi East 11.5 mph - N/A   Clear
2:35 PM 48.2 °F - 32.0 °F 54% 30.17 in 10.0 mi ENE 10.4 mph - N/A   Clear
2:55 PM 46.4 °F 41.1 °F 32.0 °F 57% 30.17 in 10.0 mi East 11.5 mph - N/A   Clear
3:15 PM 46.4 °F 40.7 °F 32.0 °F 57% 30.17 in 10.0 mi East 12.7 mph 18.4 mph N/A   Clear
3:35 PM 44.6 °F 37.4 °F 32.0 °F 61% - 10.0 mi East 16.1 mph 21.9 mph N/A   Clear
3:55 PM 44.6 °F 38.1 °F 32.0 °F 61% 30.17 in 10.0 mi East 13.8 mph 21.9 mph N/A   Clear
4:15 PM 42.8 °F 35.4 °F 30.2 °F 61% 30.16 in 10.0 mi East 15.0 mph 21.9 mph N/A   Clear
4:35 PM 42.8 °F 35.4 °F 30.2 °F 61% 30.16 in 10.0 mi East 15.0 mph 21.9 mph N/A   Clear
4:55 PM 41.0 °F 32.5 °F 30.2 °F 65% 30.16 in 10.0 mi East 17.3 mph 21.9 mph N/A   Clear
5:15 PM 41.0 °F 32.2 °F 30.2 °F 65% 30.15 in 10.0 mi East 18.4 mph 25.3 mph N/A   Clear
5:55 PM 41.0 °F 31.9 °F 30.2 °F 65% 30.14 in 10.0 mi East 19.6 mph 24.2 mph N/A   Clear
6:15 PM 39.2 °F 29.6 °F 28.4 °F 65% 30.14 in 10.0 mi East 19.6 mph 25.3 mph N/A   Clear
6:35 PM 39.2 °F 29.0 °F 28.4 °F 65% 30.14 in 10.0 mi East 21.9 mph 31.1 mph N/A   Clear
6:55 PM 39.2 °F 29.3 °F 28.4 °F 65% 30.13 in 10.0 mi East 20.7 mph 32.2 mph N/A   Clear
7:15 PM 39.2 °F 29.0 °F 28.4 °F 65% 30.13 in 10.0 mi East 21.9 mph 29.9 mph N/A   Clear
7:35 PM 39.2 °F 29.8 °F 28.4 °F 65% 30.12 in 10.0 mi East 18.4 mph 27.6 mph N/A   Clear
7:55 PM 37.4 °F 28.5 °F 28.4 °F 70% 30.12 in 10.0 mi East 15.0 mph 24.2 mph N/A   Clear
8:15 PM 37.4 °F 32.8 °F 28.4 °F 70% 30.14 in 10.0 mi ENE 5.8 mph - N/A   Clear
8:35 PM 37.4 °F 31.4 °F 28.4 °F 70% 30.14 in 10.0 mi East 8.1 mph - N/A   Clear
8:55 PM 37.4 °F 31.4 °F 28.4 °F 70% 30.14 in 10.0 mi ENE 8.1 mph - N/A   Clear
9:15 PM 37.4 °F 30.8 °F 28.4 °F 70% 30.14 in 10.0 mi ENE 9.2 mph - N/A   Clear
9:35 PM 37.4 °F 30.3 °F 28.4 °F 70% 30.14 in 10.0 mi ENE 10.4 mph - N/A   Clear
9:55 PM 35.6 °F 28.0 °F 28.4 °F 75% 30.14 in 10.0 mi East 10.4 mph - N/A   Clear
10:15 PM 35.6 °F 28.0 °F 28.4 °F 75% 30.15 in 10.0 mi East 10.4 mph - N/A   Clear
10:35 PM 35.6 °F 29.2 °F 28.4 °F 75% 30.15 in 10.0 mi ENE 8.1 mph - N/A   Clear
10:55 PM 35.6 °F 28.6 °F 28.4 °F 75% 30.15 in 10.0 mi East 9.2 mph 17.3 mph N/A   Clear
11:15 PM 35.6 °F 26.6 °F 28.4 °F 75% 30.14 in 10.0 mi East 13.8 mph - N/A   Clear